Location: Unspecified
(43.3830°N, 0.0000°E)
Time: 08:41:59
(UTC+00:00)

N. Korean satellite - Pass Details

Date: 03 December 2020
Orbit: 453 x 502 km, 97.2° (Epoch: 16 January)

Event Time Altitude Azimuth Distance (km) Brightness Sun altitude
Rises 06:23:23 0° 357° (N) 2,570 10.0 -9.3°
Reaches altitude 10° 06:25:47 10° 342° (NNW) 1,692 8.9 -8.9°
Maximum altitude 06:28:36 21° 291° (WNW) 1,146 7.8 -8.4°
Drops below altitude 10° 06:31:25 10° 241° (WSW) 1,698 9.0 -7.9°
Sets 06:33:50 0° 225° (SW) 2,581 10.0 -7.5°
